Regional Weather Roundup
Issued by NWS Sioux Falls, SD

Home | Current Version | Previous Version | Text Only | Print | Product List | Glossary Off
Versions: 1 2 3 4 5 6 7 8 9 10 11 12 13 14 15 16 17 18 19 20 21 22 23 24 25 26 27 28 29 30 31 32 33 34 35 36 37 38 39 40 41 42 43 44 45 46 47 48 49 50

000
ASUS43 KFSD 281010
RWRFSD

WEATHER ROUNDUP FOR SE SOUTH DAKOTA/SW MINNESOTA/NW IOWA
NATIONAL WEATHER SERVICE SIOUX FALLS SD
400 AM CST SAT FEB 28 2015

NOTE: "FAIR" INDICATES FEW OR NO CLOUDS BELOW 12,000 FEET WITH NO
SIGNIFICANT WEATHER AND OR OBSTRUCTIONS TO VISIBILITY.


SDZ038>040-050-052>070-281100-
SOUTHEAST SOUTH DAKOTA

CITY           SKY/WX    TMP DP  RH WIND       PRES   REMARKS
CHAMBERLAIN    CLEAR     11   1  62 S10       30.23F WCI  -3
HURON          PTCLDY     6   0  76 SE14G22   30.28F WCI -11
MADISON        FAIR       0   0 100 S8        30.33S WCI -15
MITCHELL       CLEAR      8   1  73 S13       30.33F WCI  -8
SIOUX FALLS    CLEAR      5  -2  72 S13       30.38F WCI -12
WINNER         FAIR      12   0  58 S12       30.19F WCI  -2
YANKTON        CLEAR      7   0  72 SE5       30.40F WCI  -2
$$

MNZ071-072-080-081-089-090-097-098-281100-
SOUTHWEST MINNESOTA

CITY           SKY/WX    TMP DP  RH WIND       PRES   REMARKS
FAIRMONT       PTCLDY    -8 -11  84 S8        30.46R WCI -23
JACKSON        CLEAR      1  -4  78 S12       30.43F WCI -15
LUVERNE        PTCLDY    -4  -8  84 S3        30.42R
MARSHALL       FAIR       3  -2  78 SW17      30.39F WCI -17
MONTEVIDEO     CLEAR      0  -6  78 S7        30.41F WCI -13
PIPESTONE      PTCLDY    -2  -8  78 S7        30.36R WCI -16
REDWOOD FALLS  CLEAR     -5 -10  79 S7        30.44F WCI -19
TRACY          CLEAR      5  -1  74 S14       30.39F WCI -12
WINDOM         CLEAR      0  -6  78 S5        30.42S WCI -10
WORTHINGTON    CLEAR     21 -11  23 S13       30.41F WCI   9
$$

IAZ001>003-012>014-020>022-031-032-NEZ013-014-SDZ071-281100-
NORTHWEST IOWA

CITY           SKY/WX    TMP DP  RH WIND       PRES   REMARKS
CHEROKEE       PTCLDY    -4  -8  81 S5        30.47S WCI -15
DENISON        FAIR       3  -4  72 S6        30.47R WCI  -8
ESTHERVILLE    PTCLDY   -11 -14  86 S8        30.46S WCI -28
LE MARS        CLEAR     -4  -8  84 CALM      30.46S
ORANGE CITY    PTCLDY     1  -4  78 S3        30.42S
SHELDON        CLEAR     -4  -8  84 S7        30.42S WCI -18
SIOUX CITY     CLEAR      3  -2  79 E7        30.46F WCI  -9
SPENCER        CLEAR     -1  -7  75 S12       30.45S WCI -18
STORM LAKE     PTCLDY    -4  -9  77 S12       30.45F WCI -22
$$

ABBREVIATIONS USED IN REMARKS
   TC - TEMPERATURE IN CELSIUS
  WCI - WIND CHILL INDEX
   HX - HEAT INDEX
  VSB - VISIBILITY



USA.gov is the U.S. government's official web portal to all federal, state and local government web resources and services.